Flag for U.S.A. Weather past 2 weeks in Myrtle Beach, South Carolina, U.S.A.

Now
70 °F

Clear.


Feels Like: 70 °F
Forecast: 60 / 76 °F
Wind: 9 mph from South

Location: Myrtle Beach Air Force Base

Current Time: May 4, 2015 at 1:03:20 AM

Latest Report: May 4, 2015 at 12:35 AM


Visibility: 10 mi

Pressure: 30.26 "Hg

Humidity: 64%

Dew point: 57 °F

Location of Myrtle BeachLocation

Historic Weather in Myrtle Beach — Graph

°F

Myrtle Beach temperature yesterday

Maximum temperature yesterday: 73 °F (at 10:45 AM)
Minimum temperature yesterday: 55 °F (at 5:50 AM)
Average temperature yesterday: 65 °F

Past Weeks' High & Low Weather Summary

 TemperatureHumidityPressure
High81 °F (Apr 22, 4:45 PM)94% (Apr 30, 2:55 AM)30.27 "Hg (Apr 30, 2:55 AM)
Low50 °F (May 2, 4:15 AM)20% (Apr 24, 1:45 PM)29.57 "Hg (Apr 26, 3:55 AM)
Average63 °F69%29.89 "Hg
* Reported Apr 18 11:15 PM — May 3 11:55 PM, Myrtle Beach, Weather by CustomWeather, © 2015

Note: Actual official high and low records may vary slightly from our data, if they occured in-between our weather recording intervals... More about our weather records

Advertising

Myrtle Beach weather history for previous 24 hours

 ConditionsComfort  
Time TempWeatherWind HumidityBarometerVisibility
11:55 PM
Sun, May 3
70 °FClear.10 mph64%30.27 "Hg10 mi
11:15 PM70 °FClear.9 mph69%30.26 "Hg10 mi
10:55 PM70 °FClear.9 mph69%30.26 "Hg10 mi
9:45 PM68 °FClear.12 mph69%30.24 "Hg10 mi
8:45 PM70 °FSunny.12 mph64%30.22 "Hg10 mi
7:50 PM70 °FSunny.10 mph64%30.21 "Hg10 mi
6:45 PM72 °FSunny.15 mph65%30.20 "Hg10 mi
5:45 PM73 °FPassing clouds.13 mph65%30.20 "Hg10 mi
4:45 PM73 °FPassing clouds.13 mph65%30.20 "Hg10 mi
3:45 PM73 °FPassing clouds.12 mph65%30.21 "Hg10 mi
2:50 PM73 °FPassing clouds.14 mph65%30.22 "Hg10 mi
1:50 PM73 °FPassing clouds.14 mph65%30.22 "Hg10 mi
12:47 PM73 °FPassing clouds.13 mph69%30.23 "Hg10 mi
11:50 AM73 °FPassing clouds.13 mph65%30.23 "Hg10 mi
10:45 AM73 °FPassing clouds.9 mph61%30.22 "Hg10 mi
9:53 AM72 °FSunny.7 mph69%30.20 "Hg10 mi
8:45 AM68 °FSunny.No wind83%30.19 "Hg8 mi
7:45 AM59 °FFog.No wind39%N/A3 mi
6:58 AM55 °FFog.No wind88%30.17 "Hg1 mi
6:45 AM55 °FClear.No wind88%30.16 "Hg10 mi
5:50 AM55 °FClear.No wind88%30.14 "Hg10 mi
5:35 AM57 °FClear.3 mph88%30.14 "Hg10 mi
5:15 AM57 °FClear.No wind88%30.14 "Hg10 mi
4:55 AM57 °FClear.No wind88%30.14 "Hg10 mi
4:35 AM57 °FClear.No wind88%30.13 "Hg2 mi
4:15 AM57 °FClear.No wind88%30.13 "Hg4 mi
3:55 AM59 °FClear.No wind88%30.13 "Hg10 mi
3:35 AM59 °FClear.No wind88%30.12 "Hg10 mi
3:15 AM59 °FClear.No wind88%30.12 "Hg10 mi
2:55 AM59 °FClear.No wind88%30.12 "Hg10 mi
2:35 AM61 °FClear.3 mph83%30.13 "Hg10 mi
2:15 AM61 °FClear.No wind83%30.12 "Hg10 mi
1:55 AM63 °FClear.3 mph83%30.13 "Hg10 mi
1:35 AM64 °FClear.No wind78%30.13 "Hg10 mi
1:15 AM63 °FPassing clouds.No wind83%30.13 "Hg10 mi
Weather by CustomWeather, © 2015

See weather overviewHow to use our weather pages